When you browse on this site, cookies collect data to enhance your experience and personalize the content and advertising you see.
Visit our Privacy Policy to learn more. By continuing to use the site, you agree to this use of cookies and data.
  • In Hungary
  • List of Countries
  • For 7 days
  • Water Temperature
  • Weather Map
  • News
  • Weather Widgets
  • user-avatar
    Login

    Hourly Weather Myloradove

    Today, 20 August, Tuesday

    Time Temperature Precipitation Wind Pressure Humidity
    00:00 +19°C° 0 mm 1 mps 756 mmHg 74%
    01:00 +19°C° 0 mm 1 mps 756 mmHg 76%
    02:00 +19°C° 0 mm 1 mps 756 mmHg 79%
    03:00 +18°C° 0 mm 2 mps 756 mmHg 81%
    04:00 +17°C° 0 mm 2 mps 757 mmHg 83%
    05:00 +17°C° 0 mm 2 mps 757 mmHg 84%
    06:00 +19°C° 0 mm 2 mps 757 mmHg 77%
    07:00 +23°C° 0 mm 2 mps 757 mmHg 69%
    08:00 +25°C° 0 mm 3 mps 757 mmHg 59%
    09:00 +26°C° 0 mm 3 mps 757 mmHg 54%
    10:00 +28°C° 0 mm 3 mps 757 mmHg 49%
    11:00 +29°C° 0 mm 3 mps 757 mmHg 44%
    12:00 +30°C° 0 mm 3 mps 757 mmHg 42%
    13:00 +30°C° 0 mm 3 mps 757 mmHg 39%
    14:00 +31°C° 0 mm 3 mps 757 mmHg 36%
    15:00 +31°C° 0 mm 3 mps 757 mmHg 38%
    16:00 +30°C° 0 mm 3 mps 757 mmHg 40%
    17:00 +30°C° 0 mm 3 mps 757 mmHg 42%
    18:00 +28°C° 0 mm 3 mps 757 mmHg 47%
    19:00 +26°C° 0 mm 3 mps 757 mmHg 53%
    20:00 +22°C° 0 mm 3 mps 757 mmHg 58%
    21:00 +23°C° 0 mm 2 mps 757 mmHg 61%
    22:00 +21°C° 0 mm 2 mps 757 mmHg 64%
    23:00 +20°C° 0 mm 2 mps 757 mmHg 67%

    Tomorrow, 21 August, Wednesday

    Time Temperature Precipitation Wind Pressure Humidity
    00:00 +20°C° 0 mm 2 mps 757 mmHg 68%
    01:00 +19°C° 0 mm 2 mps 758 mmHg 70%
    02:00 +19°C° 0 mm 2 mps 758 mmHg 72%
    03:00 +18°C° 0 mm 2 mps 758 mmHg 73%
    04:00 +18°C° 0 mm 2 mps 757 mmHg 74%
    05:00 +18°C° 0 mm 2 mps 757 mmHg 76%
    06:00 +20°C° 0 mm 3 mps 757 mmHg 69%
    07:00 +22°C° 0 mm 3 mps 758 mmHg 63%
    08:00 +25°C° 0 mm 4 mps 758 mmHg 57%
    09:00 +27°C° 0 mm 4 mps 757 mmHg 51%
    10:00 +28°C° 0 mm 4 mps 757 mmHg 45%
    11:00 +30°C° 0 mm 4 mps 757 mmHg 39%
    12:00 +32°C° 0 mm 4 mps 757 mmHg 38%
    13:00 +32°C° 0 mm 4 mps 756 mmHg 37%
    14:00 +33°C° 0 mm 5 mps 756 mmHg 36%
    15:00 +32°C° 0 mm 4 mps 756 mmHg 39%
    16:00 +30°C° 0 mm 4 mps 755 mmHg 41%
    17:00 +30°C° 0 mm 4 mps 755 mmHg 44%
    18:00 +28°C° 0 mm 4 mps 755 mmHg 51%
    19:00 +25°C° 0 mm 3 mps 755 mmHg 58%
    20:00 +22°C° 0 mm 3 mps 755 mmHg 65%
    21:00 +22°C° 0 mm 3 mps 755 mmHg 68%
    22:00 +21°C° 0 mm 3 mps 755 mmHg 71%
    23:00 +20°C° 0 mm 3 mps 755 mmHg 74%

    Day after tomorrow, 22 August, Thursday

    Time Temperature Precipitation Wind Pressure Humidity
    00:00 +20°C° 0 mm 3 mps 755 mmHg 77%
    01:00 +19°C° 0 mm 3 mps 755 mmHg 80%
    02:00 +19°C° 0 mm 3 mps 755 mmHg 82%
    03:00 +19°C° 0 mm 3 mps 755 mmHg 84%
    04:00 +18°C° 0 mm 3 mps 755 mmHg 86%
    05:00 +18°C° 0 mm 2 mps 755 mmHg 88%
    06:00 +20°C° 0 mm 3 mps 755 mmHg 81%
    07:00 +22°C° 0 mm 3 mps 755 mmHg 73%
    08:00 +25°C° 0 mm 3 mps 755 mmHg 65%
    09:00 +27°C° 0 mm 4 mps 755 mmHg 59%
    10:00 +28°C° 0 mm 4 mps 755 mmHg 52%
    11:00 +30°C° 0 mm 4 mps 755 mmHg 45%
    12:00 +32°C° 0 mm 4 mps 755 mmHg 43%
    13:00 +32°C° 0 mm 4 mps 754 mmHg 40%
    14:00 +33°C° 0 mm 4 mps 754 mmHg 37%
    15:00 +32°C° 0 mm 4 mps 754 mmHg 40%
    16:00 +32°C° 0 mm 4 mps 754 mmHg 42%
    17:00 +30°C° 0 mm 3 mps 754 mmHg 45%
    18:00 +28°C° 0 mm 3 mps 755 mmHg 51%
    19:00 +26°C° 0 mm 3 mps 755 mmHg 56%
    20:00 +24°C° 0 mm 3 mps 755 mmHg 62%
    21:00 +24°C° 0 mm 3 mps 755 mmHg 65%
    22:00 +22°C° 0 mm 3 mps 755 mmHg 67%
    23:00 +22°C° 0 mm 3 mps 756 mmHg 70%

    23 August, Friday

    Time Temperature Precipitation Wind Pressure Humidity
    00:00 +21°C° 0 mm 3 mps 756 mmHg 73%
    01:00 +21°C° 0 mm 3 mps 756 mmHg 75%
    02:00 +20°C° 0 mm 3 mps 756 mmHg 78%
    03:00 +20°C° 0 mm 3 mps 756 mmHg 79%
    04:00 +20°C° 0 mm 3 mps 756 mmHg 80%
    05:00 +20°C° 0 mm 3 mps 756 mmHg 81%
    06:00 +21°C° 0 mm 3 mps 756 mmHg 76%
    07:00 +24°C° 0 mm 3 mps 756 mmHg 71%
    08:00 +25°C° 0 mm 4 mps 756 mmHg 66%
    09:00 +27°C° 0 mm 4 mps 756 mmHg 60%
    10:00 +28°C° 0 mm 4 mps 756 mmHg 54%
    11:00 +30°C° 0 mm 4 mps 756 mmHg 49%
    12:00 +30°C° 0 mm 4 mps 756 mmHg 48%
    13:00 +32°C° 0 mm 4 mps 756 mmHg 47%
    14:00 +32°C° 0 mm 4 mps 756 mmHg 46%
    15:00 +30°C° 0.1 mm 5 mps 756 mmHg 50%
    16:00 +29°C° 0.1 mm 5 mps 756 mmHg 54%
    17:00 +29°C° 0.1 mm 5 mps 756 mmHg 57%
    18:00 +27°C° 0.1 mm 5 mps 756 mmHg 65%
    19:00 +25°C° 0.1 mm 5 mps 756 mmHg 72%
    20:00 +22°C° 0.1 mm 4 mps 757 mmHg 80%
    21:00 +22°C° 0 mm 4 mps 757 mmHg 84%
    22:00 +21°C° 0 mm 4 mps 757 mmHg 88%
    23:00 +20°C° 0 mm 3 mps 757 mmHg 92%

    24 August, Saturday

    Time Temperature Precipitation Wind Pressure Humidity
    00:00 +19°C° 0 mm 4 mps 757 mmHg 93%
    01:00 +19°C° 0 mm 4 mps 757 mmHg 94%
    02:00 +19°C° 0 mm 4 mps 757 mmHg 95%
    03:00 +18°C° 0 mm 4 mps 757 mmHg 94%
    04:00 +18°C° 0 mm 4 mps 757 mmHg 93%
    05:00 +17°C° 0 mm 4 mps 757 mmHg 92%
    06:00 +19°C° 0 mm 4 mps 757 mmHg 84%
    07:00 +21°C° 0 mm 5 mps 757 mmHg 76%
    08:00 +22°C° 0 mm 5 mps 758 mmHg 68%
    09:00 +25°C° 0 mm 5 mps 758 mmHg 62%
    10:00 +27°C° 0 mm 5 mps 757 mmHg 56%
    11:00 +28°C° 0 mm 5 mps 757 mmHg 51%
    12:00 +29°C° 0 mm 5 mps 757 mmHg 48%
    13:00 +30°C° 0 mm 5 mps 757 mmHg 46%
    14:00 +30°C° 0 mm 5 mps 757 mmHg 44%
    15:00 +30°C° 0 mm 5 mps 756 mmHg 45%
    16:00 +29°C° 0 mm 5 mps 756 mmHg 46%
    17:00 +28°C° 0 mm 5 mps 756 mmHg 47%
    18:00 +26°C° 0 mm 5 mps 756 mmHg 51%
    19:00 +23°C° 0 mm 4 mps 757 mmHg 56%
    20:00 +21°C° 0 mm 4 mps 757 mmHg 60%
    21:00 +20°C° 0 mm 3 mps 757 mmHg 61%
    22:00 +19°C° 0 mm 3 mps 757 mmHg 63%
    23:00 +19°C° 0 mm 3 mps 757 mmHg 64%

    25 August, Sunday

    Time Temperature Precipitation Wind Pressure Humidity
    00:00 +18°C° 0 mm 3 mps 757 mmHg 65%
    01:00 +17°C° 0 mm 3 mps 757 mmHg 65%
    02:00 +17°C° 0 mm 3 mps 757 mmHg 66%
    03:00 +17°C° 0 mm 3 mps 757 mmHg 67%
    04:00 +16°C° 0 mm 3 mps 756 mmHg 68%
    05:00 +16°C° 0 mm 3 mps 756 mmHg 69%
    06:00 +18°C° 0 mm 3 mps 757 mmHg 63%
    07:00 +20°C° 0 mm 3 mps 757 mmHg 57%
    08:00 +22°C° 0 mm 3 mps 757 mmHg 51%
    09:00 +25°C° 0 mm 4 mps 757 mmHg 45%
    10:00 +26°C° 0 mm 4 mps 757 mmHg 40%
    11:00 +28°C° 0 mm 4 mps 757 mmHg 34%
    12:00 +28°C° 0 mm 4 mps 757 mmHg 32%
    13:00 +29°C° 0 mm 4 mps 757 mmHg 31%
    14:00 +30°C° 0 mm 4 mps 756 mmHg 29%
    15:00 +29°C° 0 mm 4 mps 756 mmHg 31%
    16:00 +28°C° 0 mm 4 mps 756 mmHg 33%
    17:00 +28°C° 0 mm 4 mps 756 mmHg 35%
    18:00 +25°C° 0 mm 4 mps 756 mmHg 42%
    19:00 +22°C° 0 mm 4 mps 757 mmHg 49%
    20:00 +20°C° 0 mm 3 mps 757 mmHg 56%
    21:00 +19°C° 0 mm 3 mps 757 mmHg 60%
    22:00 +18°C° 0 mm 3 mps 757 mmHg 64%
    23:00 +17°C° 0 mm 3 mps 758 mmHg 68%
    Show more